HG-01

operational
NORAD ID: 59069 Int'l Des: 2024-040 Owner: CNSA Country: CN
HEOCIRCULARGSOGEO

关于 HG-01

正在加载描述...

实时位置

正在加载3D地球...

即将过境

高度历史

Altitude vs Time

uPlot chart will show altitude changes over time

两行轨道根数

1 59069U 24040A 26062.09398661 .00000140 00000-0 00000+0 0 9991
2 59069 0.0592 318.3175 0004346 38.3779 231.6831 1.00273437 6264
Epoch: Mar 3, 2026 • Age: 12 hours

当前状态

高度 35767.6 km
速度 3.08 km/s
星下点 0.03°N, 33.71°E
发射日期 Feb 29, 2024
运行时间 2 years
类型 other

技术详情

分类 Payload
质量 4000.00 kg
干质量 2000.00 kg
总质量 4000.00 kg
长度 3.00 m
直径 2.00 m
跨度 20.00 m
形状 Box + 2 Pan
制造商 CAST
平台类型 DFH-4
阶段状态 In Orbit
所有者/国家 CNSA/CN

大型星座

Loading constellations...